Location: Piotrkow Trybunalski
(51.4000°N, 19.6830°E)
Time: 13:15:48
(UTC+02:00)

Oscar 11 - Visible Passes

Search period start: 20 April 2024 00:00
Search period end: 30 April 2024 00:00
Orbit: 605 x 613 km, 97.7° (Epoch: 19 April)

Date Brightness Start Highest point End Pass type
(mag) Time Alt. Az. Time Alt. Az. Time Alt. Az.
20 Apr 8.5 04:09:28 10° NNE 04:13:30 37° E 04:17:30 10° SSE visible
21 Apr 7.9 04:23:16 10° NNE 04:27:30 51° E 04:31:40 10° S visible
22 Apr 7.4 04:37:08 10° NNE 04:41:26 69° ESE 04:45:43 10° S visible
23 Apr 9.9 03:17:00 10° ENE 03:18:48 12° E 03:20:36 10° ESE visible
23 Apr 7.1 04:51:01 10° NNE 04:55:21 87° WNW 04:59:39 10° SSW visible
24 Apr 9.7 03:30:06 10° NE 03:32:52 17° E 03:35:37 10° SE visible
25 Apr 9.4 03:43:31 10° NE 03:46:54 22° E 03:50:14 10° SE visible
26 Apr 8.9 03:57:07 10° NNE 04:00:53 29° E 04:04:37 10° SSE visible
27 Apr 8.4 04:10:47 10° NNE 04:14:50 39° E 04:18:50 10° SSE visible
28 Apr 7.9 04:24:30 10° NNE 04:28:44 52° E 04:32:55 10° S visible
